Year,Month,Day,Hour,Minute,Value (Times are PST for temperature in C)
2010,04,02,00,00,4.20
2010,04,02,00,01,4.20
2010,04,02,00,02,4.20
2010,04,02,00,03,4.20
2010,04,02,00,04,4.20
2010,04,02,00,05,4.10
2010,04,02,00,06,4.10
2010,04,02,00,07,4.10
2010,04,02,00,08,4.10
2010,04,02,00,09,4.10
2010,04,02,00,10,4.10
2010,04,02,00,11,4.10
2010,04,02,00,12,4.10
2010,04,02,00,13,4.10
2010,04,02,00,14,4.10
2010,04,02,00,15,4.10
2010,04,02,00,16,4.10
2010,04,02,00,17,4.10
2010,04,02,00,18,4.10
2010,04,02,00,19,4.10
2010,04,02,00,20,4.10
2010,04,02,00,21,4.10
2010,04,02,00,22,4.10
2010,04,02,00,23,4.10
2010,04,02,00,24,4.10
2010,04,02,00,25,4.10
2010,04,02,00,26,4.10
2010,04,02,00,27,4.10
2010,04,02,00,28,4.10
2010,04,02,00,29,4.00
2010,04,02,00,30,4.00
2010,04,02,00,31,4.00
2010,04,02,00,32,4.00
2010,04,02,00,33,4.00
2010,04,02,00,34,4.00
2010,04,02,00,35,3.90
2010,04,02,00,36,3.90
2010,04,02,00,37,3.90
2010,04,02,00,38,3.90
2010,04,02,00,39,3.90
2010,04,02,00,40,3.90
2010,04,02,00,41,4.00
2010,04,02,00,42,3.90
2010,04,02,00,43,4.00
2010,04,02,00,44,4.00
2010,04,02,00,45,4.00
2010,04,02,00,46,4.00
2010,04,02,00,47,3.90
2010,04,02,00,48,3.90
2010,04,02,00,49,3.90
2010,04,02,00,50,3.90
2010,04,02,00,51,3.90
2010,04,02,00,52,3.90
2010,04,02,00,53,3.90
2010,04,02,00,54,3.90
2010,04,02,00,55,3.90
2010,04,02,00,56,3.90
2010,04,02,00,57,3.90
2010,04,02,00,58,3.90
2010,04,02,00,59,3.90
2010,04,02,01,00,3.80
2010,04,02,01,01,3.90
2010,04,02,01,02,3.80
2010,04,02,01,03,3.80
2010,04,02,01,04,3.80
2010,04,02,01,05,3.80
2010,04,02,01,06,3.80
2010,04,02,01,07,3.80
2010,04,02,01,08,3.80
2010,04,02,01,09,3.80
2010,04,02,01,10,3.80
2010,04,02,01,11,3.90
2010,04,02,01,12,3.80
2010,04,02,01,13,3.90
2010,04,02,01,14,3.90
2010,04,02,01,15,3.90
2010,04,02,01,16,3.90
2010,04,02,01,17,3.90
2010,04,02,01,18,3.90
2010,04,02,01,19,3.90
2010,04,02,01,20,3.90
2010,04,02,01,21,3.90
2010,04,02,01,22,3.90
2010,04,02,01,23,3.90
2010,04,02,01,24,3.90
2010,04,02,01,25,3.90
2010,04,02,01,26,3.90
2010,04,02,01,27,3.90
2010,04,02,01,28,3.90
2010,04,02,01,29,3.90
2010,04,02,01,30,4.00
2010,04,02,01,31,4.00
2010,04,02,01,32,4.00
2010,04,02,01,33,4.00
2010,04,02,01,34,4.10
2010,04,02,01,35,4.10
2010,04,02,01,36,4.10
2010,04,02,01,37,4.00
2010,04,02,01,38,4.00
2010,04,02,01,39,4.00
2010,04,02,01,40,4.00
2010,04,02,01,41,4.00
2010,04,02,01,42,4.00
2010,04,02,01,43,4.00
2010,04,02,01,44,4.00
2010,04,02,01,45,4.00
2010,04,02,01,46,4.10
2010,04,02,01,47,4.10
2010,04,02,01,48,4.10
2010,04,02,01,49,4.10
2010,04,02,01,50,4.10
2010,04,02,01,51,4.10
2010,04,02,01,52,4.10
2010,04,02,01,53,4.10
2010,04,02,01,54,4.10
2010,04,02,01,55,4.10
2010,04,02,01,56,4.10
2010,04,02,01,57,4.10
2010,04,02,01,58,4.10
2010,04,02,01,59,4.10
2010,04,02,02,00,4.10
2010,04,02,02,01,4.10
2010,04,02,02,02,4.10
2010,04,02,02,03,4.10
2010,04,02,02,04,4.10
2010,04,02,02,05,4.10
2010,04,02,02,06,4.10
2010,04,02,02,07,4.10
2010,04,02,02,08,4.10
2010,04,02,02,09,4.10
2010,04,02,02,10,4.10
2010,04,02,02,11,4.10
2010,04,02,02,12,4.10
2010,04,02,02,13,4.10
2010,04,02,02,14,4.10
2010,04,02,02,15,4.10
2010,04,02,02,16,4.10
2010,04,02,02,17,4.10
2010,04,02,02,18,4.10
2010,04,02,02,19,4.10
2010,04,02,02,20,4.10
2010,04,02,02,21,4.10
2010,04,02,02,22,4.10
2010,04,02,02,23,4.10
2010,04,02,02,24,4.10
2010,04,02,02,25,4.10
2010,04,02,02,26,4.10
2010,04,02,02,27,4.10
2010,04,02,02,28,4.10
2010,04,02,02,29,4.10
2010,04,02,02,30,4.10
2010,04,02,02,31,4.10
2010,04,02,02,32,4.10
2010,04,02,02,33,4.20
2010,04,02,02,34,4.20
2010,04,02,02,35,4.20
2010,04,02,02,36,4.20
2010,04,02,02,37,4.20
2010,04,02,02,38,4.20
2010,04,02,02,39,4.20
2010,04,02,02,40,4.20
2010,04,02,02,41,4.20
2010,04,02,02,42,4.20
2010,04,02,02,43,4.20
2010,04,02,02,44,4.30
2010,04,02,02,45,4.30
2010,04,02,02,46,4.30
2010,04,02,02,47,4.30
2010,04,02,02,48,4.30
2010,04,02,02,49,4.30
2010,04,02,02,50,4.30
2010,04,02,02,51,4.40
2010,04,02,02,52,4.40
2010,04,02,02,53,4.40
2010,04,02,02,54,4.40
2010,04,02,02,55,4.40
2010,04,02,02,56,4.40
2010,04,02,02,57,4.50
2010,04,02,02,58,4.50
2010,04,02,02,59,4.50
2010,04,02,03,00,4.50
2010,04,02,03,01,4.60
2010,04,02,03,02,4.60
2010,04,02,03,03,4.60
2010,04,02,03,04,4.60
2010,04,02,03,05,4.60
2010,04,02,03,06,4.60
2010,04,02,03,07,4.60
2010,04,02,03,08,4.60
2010,04,02,03,09,4.60
2010,04,02,03,10,4.60
2010,04,02,03,11,4.60
2010,04,02,03,12,4.60
2010,04,02,03,13,4.60
2010,04,02,03,14,4.60
2010,04,02,03,15,4.70
2010,04,02,03,16,4.70
2010,04,02,03,17,4.70
2010,04,02,03,18,4.70
2010,04,02,03,19,4.70
2010,04,02,03,20,4.70
2010,04,02,03,21,4.70
2010,04,02,03,22,4.70
2010,04,02,03,23,4.70
2010,04,02,03,24,4.70
2010,04,02,03,25,4.70
2010,04,02,03,26,4.70
2010,04,02,03,27,4.70
2010,04,02,03,28,4.70
2010,04,02,03,29,4.70
2010,04,02,03,30,4.70
2010,04,02,03,31,4.80
2010,04,02,03,32,4.80
2010,04,02,03,33,4.80
2010,04,02,03,34,4.80
2010,04,02,03,35,4.80
2010,04,02,03,36,4.80
2010,04,02,03,37,4.80
2010,04,02,03,38,4.80
2010,04,02,03,39,4.80
2010,04,02,03,40,4.90
2010,04,02,03,41,4.90
2010,04,02,03,42,4.90
2010,04,02,03,43,5.00
2010,04,02,03,44,5.00
2010,04,02,03,45,5.10
2010,04,02,03,46,5.10
2010,04,02,03,47,5.10
2010,04,02,03,48,5.10
2010,04,02,03,49,5.20
2010,04,02,03,50,5.20
2010,04,02,03,51,5.20
2010,04,02,03,52,5.20
2010,04,02,03,53,5.30
2010,04,02,03,54,5.30
2010,04,02,03,55,5.30
2010,04,02,03,56,5.30
2010,04,02,03,57,5.30
2010,04,02,03,58,5.30
2010,04,02,03,59,5.40
2010,04,02,04,00,5.40
2010,04,02,04,01,5.40
2010,04,02,04,02,5.30
2010,04,02,04,03,5.30
2010,04,02,04,05,5.30
2010,04,02,04,06,5.30
2010,04,02,04,07,5.30
2010,04,02,04,08,5.30
2010,04,02,04,09,5.30
2010,04,02,04,10,5.30
2010,04,02,04,11,5.30
2010,04,02,04,12,5.30
2010,04,02,04,13,5.30
2010,04,02,04,14,5.30
2010,04,02,04,15,5.30
2010,04,02,04,16,5.30
2010,04,02,04,17,5.30
2010,04,02,04,18,5.30
2010,04,02,04,19,5.30
2010,04,02,04,20,5.20
2010,04,02,04,21,5.20
2010,04,02,04,22,5.20
2010,04,02,04,23,5.20
2010,04,02,04,24,5.20
2010,04,02,04,25,5.20
2010,04,02,04,26,5.20
2010,04,02,04,27,5.20
2010,04,02,04,28,5.20
2010,04,02,04,29,5.20
2010,04,02,04,30,5.20
2010,04,02,04,31,5.20
2010,04,02,04,32,5.20
2010,04,02,04,33,5.10
2010,04,02,04,34,5.10
2010,04,02,04,35,5.10
2010,04,02,04,36,5.10
2010,04,02,04,37,5.10
2010,04,02,04,38,5.20
2010,04,02,04,39,5.20
2010,04,02,04,40,5.20
2010,04,02,04,41,5.20
2010,04,02,04,42,5.20
2010,04,02,04,43,5.20
2010,04,02,04,44,5.20
2010,04,02,04,45,5.20
2010,04,02,04,46,5.20
2010,04,02,04,47,5.20
2010,04,02,04,48,5.20
2010,04,02,04,49,5.20
2010,04,02,04,50,5.20
2010,04,02,04,51,5.20
2010,04,02,04,52,5.20
2010,04,02,04,53,5.30
2010,04,02,04,54,5.30
2010,04,02,04,55,5.30
2010,04,02,04,56,5.40
2010,04,02,04,57,5.40
2010,04,02,04,58,5.40
2010,04,02,04,59,5.40
2010,04,02,05,00,5.40
2010,04,02,05,01,5.40
2010,04,02,05,02,5.50
2010,04,02,05,03,5.50
2010,04,02,05,04,5.60
2010,04,02,05,05,5.60
2010,04,02,05,06,5.70
2010,04,02,05,07,5.70
2010,04,02,05,08,5.70
2010,04,02,05,09,5.70
2010,04,02,05,10,5.70
2010,04,02,05,11,5.80
2010,04,02,05,12,5.80
2010,04,02,05,13,5.80
2010,04,02,05,14,5.80
2010,04,02,05,15,5.80
2010,04,02,05,16,5.80
2010,04,02,05,17,5.80
2010,04,02,05,18,5.80
2010,04,02,05,19,5.80
2010,04,02,05,20,5.80
2010,04,02,05,21,5.80
2010,04,02,05,22,5.80
2010,04,02,05,23,5.80
2010,04,02,05,24,5.80
2010,04,02,05,25,5.80
2010,04,02,05,26,5.80
2010,04,02,05,27,5.80
2010,04,02,05,28,5.80
2010,04,02,05,29,5.80
2010,04,02,05,30,5.80
2010,04,02,05,31,5.70
2010,04,02,05,32,5.70
2010,04,02,05,33,5.70
2010,04,02,05,34,5.70
2010,04,02,05,35,5.70
2010,04,02,05,36,5.70
2010,04,02,05,37,5.70
2010,04,02,05,38,5.70
2010,04,02,05,39,5.70
2010,04,02,05,40,5.60
2010,04,02,05,41,5.60
2010,04,02,05,42,5.60
2010,04,02,05,43,5.60
2010,04,02,05,44,5.60
2010,04,02,05,45,5.60
2010,04,02,05,46,5.60
2010,04,02,05,47,5.60
2010,04,02,05,48,5.60
2010,04,02,05,49,5.60
2010,04,02,05,50,5.60
2010,04,02,05,51,5.50
2010,04,02,05,52,5.50
2010,04,02,05,53,5.50
2010,04,02,05,54,5.50
2010,04,02,05,55,5.50
2010,04,02,05,56,5.40
2010,04,02,05,57,5.40
2010,04,02,05,58,5.40
2010,04,02,05,59,5.40
2010,04,02,06,00,5.40
2010,04,02,06,01,5.40
2010,04,02,06,02,5.40
2010,04,02,06,03,5.40
2010,04,02,06,04,5.40
2010,04,02,06,05,5.40
2010,04,02,06,06,5.40
2010,04,02,06,07,5.40
2010,04,02,06,08,5.40
2010,04,02,06,09,5.40
2010,04,02,06,10,5.40
2010,04,02,06,11,5.40
2010,04,02,06,12,5.40
2010,04,02,06,13,5.40
2010,04,02,06,14,5.40
2010,04,02,06,15,5.40
2010,04,02,06,16,5.40
2010,04,02,06,17,5.40
2010,04,02,06,18,5.50
2010,04,02,06,19,5.50
2010,04,02,06,20,5.50
2010,04,02,06,21,5.50
2010,04,02,06,22,5.50
2010,04,02,06,23,5.50
2010,04,02,06,24,5.40
2010,04,02,06,25,5.40
2010,04,02,06,26,5.40
2010,04,02,06,27,5.40
2010,04,02,06,28,5.40
2010,04,02,06,29,5.40
2010,04,02,06,30,5.40
2010,04,02,06,31,5.40
2010,04,02,06,32,5.40
2010,04,02,06,33,5.40
2010,04,02,06,34,5.40
2010,04,02,06,35,5.40
2010,04,02,06,36,5.40
2010,04,02,06,37,5.40
2010,04,02,06,38,5.40
2010,04,02,06,39,5.30
2010,04,02,06,40,5.30
2010,04,02,06,41,5.30
2010,04,02,06,42,5.30
2010,04,02,06,43,5.30
2010,04,02,06,44,5.30
2010,04,02,06,45,5.20
2010,04,02,06,46,5.20
2010,04,02,06,47,5.20
2010,04,02,06,48,5.20
2010,04,02,06,49,5.20
2010,04,02,06,50,5.20
2010,04,02,06,51,5.20
2010,04,02,06,52,5.20
2010,04,02,06,53,5.20
2010,04,02,06,54,5.20
2010,04,02,06,55,5.20
2010,04,02,06,56,5.20
2010,04,02,06,57,5.10
2010,04,02,06,58,5.10
2010,04,02,06,59,5.10
2010,04,02,07,00,5.10
2010,04,02,07,01,5.10
2010,04,02,07,02,5.10
2010,04,02,07,03,5.10
2010,04,02,07,04,5.20
2010,04,02,07,05,5.10
2010,04,02,07,06,5.10
2010,04,02,07,07,5.10
2010,04,02,07,08,5.10
2010,04,02,07,09,5.10
2010,04,02,07,10,5.10
2010,04,02,07,11,5.00
2010,04,02,07,12,4.90
2010,04,02,07,13,4.90
2010,04,02,07,14,4.90
2010,04,02,07,15,4.90
2010,04,02,07,16,4.80
2010,04,02,07,17,4.80
2010,04,02,07,18,4.80
2010,04,02,07,19,4.80
2010,04,02,07,20,4.80
2010,04,02,07,21,4.80
2010,04,02,07,22,4.70
2010,04,02,07,23,4.70
2010,04,02,07,24,4.70
2010,04,02,07,25,4.70
2010,04,02,07,26,4.60
2010,04,02,07,27,4.60
2010,04,02,07,28,4.60
2010,04,02,07,29,4.50
2010,04,02,07,30,4.50
2010,04,02,07,31,4.50
2010,04,02,07,32,4.50
2010,04,02,07,33,4.40
2010,04,02,07,34,4.40
2010,04,02,07,35,4.40
2010,04,02,07,36,4.40
2010,04,02,07,37,4.40
2010,04,02,07,38,4.40
2010,04,02,07,39,4.40
2010,04,02,07,40,4.50
2010,04,02,07,41,4.50
2010,04,02,07,42,4.50
2010,04,02,07,43,4.60
2010,04,02,07,44,4.60
2010,04,02,07,45,4.60
2010,04,02,07,46,4.70
2010,04,02,07,47,4.70
2010,04,02,07,48,4.70
2010,04,02,07,49,4.80
2010,04,02,07,50,4.80
2010,04,02,07,51,4.80
2010,04,02,07,52,4.80
2010,04,02,07,53,4.80
2010,04,02,07,54,4.80
2010,04,02,07,55,4.80
2010,04,02,07,56,4.80
2010,04,02,07,57,4.70
2010,04,02,07,58,4.70
2010,04,02,07,59,4.70
2010,04,02,08,00,4.70
2010,04,02,08,01,4.60
2010,04,02,08,02,4.60
2010,04,02,08,03,4.60
2010,04,02,08,04,4.60
2010,04,02,08,05,4.50
